Weather History for KPCW - September, 2014

Change the Weather History Date:

Thursday, September 4, 2014

  Actual Average (KTOL) Record (KTOL)
Temperature  
Mean Temperature 78 °F 68 °F  
Max Temperature 90 °F 80 °F 95 °F (1960)
Min Temperature 65 °F 57 °F 40 °F (1974)
Degree Days  
Heating Degree Days 0 1  
Month to date heating degree days 4  
Since 1 July heating degree days 18  
Cooling Degree Days 12 5  
Month to date cooling degree days 20  
Year to date cooling degree days 722  
Growing Degree Days 28 (Base 50)    
Moisture  
Dew Point 67 °F    
Average Humidity 70    
Maximum Humidity 94    
Minimum Humidity 52    
Precipitation  
Precipitation 0.00 in 0.09 in 1.78 in (1960)
Month to date precipitation 0.39  
Year to date precipitation 23.71  
Snow  
Snow 0.00 in 0.00 in - ()
Month to date snowfall 0.0  
Since 1 July snowfall 0.0  
Since 1 September snowfall 0.0  
Snow Depth -    
Sea Level Pressure  
Sea Level Pressure 30.05 in    
Wind  
Wind Speed 6 mph (SW)    
Max Wind Speed 14 mph    
Max Gust Speed -    
Visibility 10 miles    
Events Rain    
T = Trace of Precipitation, MM = Missing Value Source: NWS Daily Summary

Daily Weather History Graph

Daily Weather History Graph

Search for Another Location

Airport or City:

Trip Planner

Search our weather history database for the weather conditions in past years. The results will help you decide how hot, cold, wet, or windy it might be!

Date:

Astronomy

Sep. 04, 2014 Rise Set
Actual Time 7:00 AM EDT 7:59 PM EDT
Civil Twilight 6:32 AM EDT 8:27 PM EDT
Nautical Twilight 5:58 AM EDT 9:01 PM EDT
Astronomical Twilight 5:23 AM EDT 9:36 PM EDT
Moon 4:38 PM EDT (9/4) 1:48 AM EDT (9/4)
Length of Visible Light 13h 55m
Length of Day
12h 58m
Waxing Gibbous, 74% of the Moon is Illuminated
Sep 4
Waxing Gibbous
Sep 8
Full
Sep 15
Last Quarter
Sep 24
New
Oct 1
First Quarter

Hourly Weather History & Observations

Time (EDT) Temp. Heat Index Dew Point Humidity Pressure Visibility Wind Dir Wind Speed Gust Speed Precip Events Conditions
12:13 AM 69.8 °F - 64.4 °F 83% 30.06 in 10.0 mi SSW 4.6 mph - N/A   Clear
12:33 AM 69.8 °F - 64.4 °F 83% 30.06 in 10.0 mi SW 3.5 mph - N/A   Clear
12:53 AM 68.9 °F - 63.9 °F 84% 30.06 in 10.0 mi SSW 4.6 mph - N/A   Clear
1:13 AM 66.2 °F - 64.4 °F 94% 30.07 in 10.0 mi SSW 3.5 mph - N/A   Clear
1:53 AM 66.2 °F - 62.6 °F 88% 30.07 in 10.0 mi SSW 4.6 mph - N/A   Clear
2:13 AM 66.2 °F - 62.6 °F 88% 30.07 in 10.0 mi SSW 5.8 mph - N/A   Clear
2:33 AM 68.0 °F - 62.6 °F 83% 30.07 in 10.0 mi SSW 5.8 mph - N/A   Clear
2:53 AM 68.0 °F - 63.0 °F 84% 30.07 in 10.0 mi SSW 4.6 mph - N/A   Clear
3:13 AM 68.0 °F - 62.6 °F 83% 30.07 in 10.0 mi SSW 5.8 mph - N/A   Clear
3:33 AM 66.2 °F - 62.6 °F 88% 30.07 in 10.0 mi SSW 4.6 mph - N/A   Clear
3:53 AM 65.8 °F - 61.9 °F 87% 30.06 in 10.0 mi SSW 4.6 mph - N/A   Clear
4:13 AM 66.2 °F - 62.6 °F 88% 30.06 in 10.0 mi SW 4.6 mph - N/A   Clear
4:33 AM 66.2 °F - 62.6 °F 88% 30.06 in 10.0 mi SSW 6.9 mph - N/A   Clear
4:53 AM 68.0 °F - 63.0 °F 84% 30.06 in 10.0 mi SSW 6.9 mph - N/A   Clear
5:13 AM 68.0 °F - 62.6 °F 83% 30.05 in 10.0 mi SSW 6.9 mph - N/A   Clear
5:33 AM 68.0 °F - 62.6 °F 83% 30.05 in 10.0 mi SSW 6.9 mph - N/A   Clear
5:53 AM 66.9 °F - 61.9 °F 84% 30.06 in 10.0 mi SSW 5.8 mph - N/A   Clear
6:13 AM 66.2 °F - 62.6 °F 88% 30.05 in 10.0 mi SSW 5.8 mph - N/A   Clear
6:33 AM 68.0 °F - 62.6 °F 83% 30.06 in 10.0 mi SSW 4.6 mph - N/A   Clear
6:53 AM 66.9 °F - 61.9 °F 84% 30.06 in 10.0 mi SSW 6.9 mph - N/A   Clear
7:13 AM 66.2 °F - 62.6 °F 88% 30.05 in 10.0 mi SSW 6.9 mph - N/A   Clear
7:33 AM 68.0 °F - 62.6 °F 83% 30.06 in 10.0 mi South 6.9 mph - N/A   Clear
8:13 AM 71.6 °F - 64.4 °F 78% 30.06 in 10.0 mi SSW 5.8 mph - N/A   Clear
8:33 AM 71.6 °F - 64.4 °F 78% 30.06 in 10.0 mi SSW 5.8 mph - N/A   Clear
8:53 AM 72.9 °F - 64.9 °F 76% 30.07 in 10.0 mi SW 6.9 mph - N/A   Clear
9:13 AM 73.4 °F - 66.2 °F 78% 30.08 in 10.0 mi SW 6.9 mph - N/A   Clear
9:33 AM 75.2 °F - 66.2 °F 73% 30.08 in 10.0 mi SW 5.8 mph - N/A   Clear
9:53 AM 75.9 °F - 66.9 °F 74% 30.09 in 10.0 mi SSW 5.8 mph - N/A   Clear
10:13 AM 77.0 °F - 66.2 °F 69% 30.09 in 10.0 mi SW 6.9 mph - N/A   Clear
10:33 AM 78.8 °F - 69.8 °F 74% 30.09 in 10.0 mi SW 6.9 mph - N/A   Clear
10:53 AM 79.9 °F - 68.9 °F 69% 30.09 in 10.0 mi SW 5.8 mph - N/A   Clear
11:13 AM 80.6 °F 83.9 °F 69.8 °F 70% 30.09 in 10.0 mi SW 8.1 mph - N/A   Clear
11:33 AM 82.4 °F 86.3 °F 69.8 °F 66% 30.09 in 10.0 mi SW 6.9 mph - N/A Rain Light Rain
11:53 AM 82.9 °F 86.3 °F 68.9 °F 62% 30.08 in 10.0 mi SW 8.1 mph - N/A Rain Light Rain
12:13 PM 84.2 °F 88.4 °F 69.8 °F 62% 30.08 in 10.0 mi SW 10.4 mph - N/A   Clear
12:33 PM 84.2 °F 88.4 °F 69.8 °F 62% 30.07 in 10.0 mi WSW 11.5 mph - N/A   Clear
12:53 PM 86.0 °F 90.7 °F 70.0 °F 59% 30.06 in 10.0 mi WSW 9.2 mph - N/A   Clear
1:13 PM 87.8 °F 92.6 °F 69.8 °F 55% 30.05 in 10.0 mi WSW 10.4 mph - N/A   Clear
1:33 PM 87.8 °F 92.6 °F 69.8 °F 55% 30.05 in 10.0 mi WSW 12.7 mph - N/A   Clear
1:53 PM 89.6 °F 96.2 °F 71.6 °F 55% 30.04 in 10.0 mi WSW 10.4 mph - N/A   Clear
2:13 PM 89.6 °F 94.7 °F 69.8 °F 52% 30.04 in 10.0 mi SW 10.4 mph - N/A   Clear
2:33 PM 89.6 °F 96.2 °F 71.6 °F 55% 30.04 in 10.0 mi SW 13.8 mph - N/A   Clear
2:53 PM 90.0 °F 95.4 °F 70.0 °F 52% 30.03 in 10.0 mi SW 11.5 mph - N/A   Clear
3:13 PM 89.6 °F 96.2 °F 71.6 °F 55% 30.03 in 10.0 mi SW 11.5 mph - N/A   Clear
3:33 PM 89.6 °F 96.2 °F 71.6 °F 55% 30.02 in 10.0 mi SW 10.4 mph - N/A   Clear
3:53 PM 89.6 °F 94.7 °F 69.8 °F 52% 30.01 in 10.0 mi SW 9.2 mph - N/A Rain Light Rain
4:13 PM 89.6 °F 94.7 °F 69.8 °F 52% 30.01 in 10.0 mi SW 8.1 mph - N/A Rain Light Rain
4:33 PM 89.6 °F 94.7 °F 69.8 °F 52% 30.00 in 10.0 mi SSW 10.4 mph - N/A Rain Light Rain
4:53 PM 89.6 °F 96.2 °F 71.6 °F 55% 30.00 in 10.0 mi SW 8.1 mph - N/A Rain Light Rain
5:13 PM 89.6 °F 94.7 °F 69.8 °F 52% 30.00 in 10.0 mi SSW 10.4 mph - N/A Rain Light Rain
5:33 PM 89.6 °F 94.7 °F 69.8 °F 52% 30.01 in 10.0 mi SSW 5.8 mph - N/A Rain Light Rain
5:53 PM 88.9 °F 93.8 °F 70.0 °F 53% 30.00 in 10.0 mi SW 8.1 mph - N/A Rain Light Rain
6:13 PM 89.6 °F 94.7 °F 69.8 °F 52% 30.01 in 10.0 mi SW 5.8 mph - N/A Rain Light Rain
6:33 PM 87.8 °F 92.6 °F 69.8 °F 55% 30.02 in 10.0 mi SW 5.8 mph - N/A Rain Light Rain
6:53 PM 86.9 °F 91.7 °F 70.0 °F 57% 30.02 in 10.0 mi WSW 6.9 mph - N/A Rain Light Rain
7:13 PM 86.0 °F 91.8 °F 71.6 °F 62% 30.03 in 10.0 mi SW 4.6 mph - N/A   Partly Cloudy
7:33 PM 84.2 °F 87.3 °F 68.0 °F 58% 30.04 in 10.0 mi SSW 5.8 mph - N/A Rain Light Rain
7:52 PM 82.4 °F 85.4 °F 68.0 °F 62% 30.03 in 10.0 mi SSW 6.9 mph - N/A Rain Light Rain
8:13 PM 80.6 °F 83.2 °F 68.0 °F 65% 30.03 in 10.0 mi SSW 5.8 mph - N/A Rain Light Rain
8:33 PM 82.4 °F 85.4 °F 68.0 °F 62% 30.04 in 10.0 mi SW 5.8 mph - N/A Rain Light Rain
8:52 PM 81.9 °F 85.2 °F 68.9 °F 65% 30.04 in 10.0 mi SSW 8.1 mph - N/A Rain Light Rain
9:13 PM 82.4 °F 86.3 °F 69.8 °F 66% 30.02 in 10.0 mi SSW 9.2 mph - N/A   Clear
9:33 PM 80.6 °F 83.9 °F 69.8 °F 70% 30.03 in 10.0 mi SW 10.4 mph - N/A Rain Light Rain
10:13 PM 78.8 °F - 69.8 °F 74% 30.04 in 10.0 mi SSW 5.8 mph - N/A   Clear
10:33 PM 78.8 °F - 69.8 °F 74% 30.05 in 10.0 mi SW 6.9 mph - N/A   Clear
10:53 PM 78.8 °F - 71.6 °F 78% 30.06 in 10.0 mi SSW 5.8 mph - N/A   Clear
11:13 PM 78.8 °F - 69.8 °F 74% 30.06 in 10.0 mi SSW 4.6 mph - N/A   Clear
11:33 PM 77.0 °F - 69.8 °F 78% 30.07 in 10.0 mi SSW 5.8 mph - N/A   Clear
11:53 PM 77.0 °F - 70.0 °F 79% 30.08 in 10.0 mi SSW 4.6 mph - N/A   Clear